Regional Weather Roundup
Issued by NWS Jackson, KY

Home | Current Version | Previous Version | Text Only | Print | Product List | Glossary On
Versions: 1 2 3 4 5 6 7 8 9 10 11 12 13 14 15 16 17 18 19 20 21 22 23 24 25 26 27 28 29 30 31 32 33 34 35 36 37 38 39 40 41 42 43 44 45 46 47 48 49
000
ASUS43 KJKL 010510
RWRJKL

EAST KENTUCKY HOURLY WEATHER ROUNDUP
NATIONAL WEATHER SERVICE JACKSON KY
100 AM EDT SAT AUG 01 2015

NOTE: "FAIR" INDICATES FEW OR NO CLOUDS BELOW 12,000 FEET WITH
NO SIGNIFICANT WEATHER AND/OR OBSTRUCTIONS TO VISIBILITY.

* THESE REPORTS ARE NOT UNDER NWS QUALITY CONTROL AND MAY NOT
  REPORT WEATHER SUCH AS PRECIPITATION AND FOG.

KYZ079-080-083-085-087-088-110-112-115-119-120-010600
...EASTERN KENTUCKY...

CITY           SKY/WX    TMP DP  RH WIND       PRES   REMARKS
JACKSON        CLEAR     68  62  81 CALM      30.04S
LONDON         CLEAR     67  61  81 CALM      30.05S
SOMERSET*      CLEAR     63  63 100 CALM      30.06S
MONTICELLO*    CLEAR     63  63 100 CALM      30.08S
MIDDLESBORO*   CLEAR     63  62  96 CALM      30.08S
HAZARD APT*    CLEAR     66  63  88 CALM      30.04S
BLACK MTN*       N/A     63  55  77 S1          N/A
PIKEVILLE APT* CLEAR     68  61  77 S3        30.04S
BIG SANDY*     CLEAR     70  63  78 SW6       30.03S
MOREHEAD APT*  PTCLDY    68  63  83 SW6       30.03S
$$

KYZ035-036-041-042-044-050-067-078-099-010600
...CENTRAL KENTUCKY...

CITY           SKY/WX    TMP DP  RH WIND       PRES   REMARKS
MT STERLING*   CLEAR     68  61  77 SW5       30.04S
FLEMING/MASON* MOCLDY    72  61  68 W10       30.02R
DANVILLE*      CLEAR     66  63  88 SW3       30.06R
RICHMOND*      CLEAR     70  61  73 SW3       30.04R
LEXINGTON      CLEAR     69  61  75 W6        30.03S
FRANKFORT      CLEAR     72  60  66 W6        30.01S
$$

KYZ091>093-OHZ055-061-077-WVZ005-015-034-035-042-010600
...SOUTHERN OHIO/WEST VIRGINIA...

CITY           SKY/WX    TMP DP  RH WIND       PRES   REMARKS
COVINGTON      CLEAR     71  61  70 W7        30.00R
COLUMBUS       PTCLDY    72  64  76 CALM      29.94R
DAYTON         CLEAR     69  61  75 W10       29.98R
WILMINGTON     CLEAR     72  59  63 W8        29.98R
HUNTINGTON     PTCLDY    68  64  87 SW3       29.98S
CHARLESTON     CLEAR     67  64  90 CALM      29.99R
PINEVILLE*     CLEAR     62  62 100 MISG      30.11S
BECKLEY        PTCLDY    64  56  75 S5        30.09S
BLUEFIELD      CLEAR     65  56  72 W6        30.12S
$$

VAZ002-007-008-TNZ017-027-036-066-071-010600
...SOUTHWEST VIRGINIA/EAST TENNESSEE...

CITY           SKY/WX    TMP DP  RH WIND       PRES   REMARKS
WISE*          CLEAR     63  55  77 CALM      30.14S
ABINGDON*      CLEAR     63  58  84 CALM      30.09S
BRISTOL        CLEAR     62  59  90 CALM      30.07S
KNOXVILLE      CLEAR     70  63  78 CALM      30.04R
OAK RIDGE      CLEAR     68  63  84 CALM      30.07R
CROSSVILLE     CLEAR     65  59  81 CALM      30.10S
NASHVILLE      CLEAR     74  60  61 CALM      30.05S
$$

...KEY TO REMARKS...
VSB - VISIBILITY IN MILES
WCI - WIND CHILL INDEX
HX  - HEAT INDEX

$$


USA.gov is the U.S. government's official web portal to all federal, state and local government web resources and services.